www.pogodaiklimat.ru

Погода и климат >> Архив погоды >> Россия >> Кировская область >> Опарино


ПОГОДА в Опарино

  • Прогноз погоды в Опарино
  • Монитор погоды в Опарино
  • Климат города

АРХИВ ПОГОДЫ в Опарино

Время (UTC), дата Ветер
(напр.,м/с)
 
Видим.   Явления Облачность Т
(С)
Тd
(С)
f
(%)
Тe
(С)
Тes
(С)
Комфортность P
(гПа)
Po
(гПа)
Тmin
(С)
Tmax
(С)
R
(мм)
R24
(мм)
S
(см)
03 14.10 СЗ 1-3
{5}
50 км 10/0
[As op]
-2.0 -2.3 98 -4 -4 1023.9 1001.0 -2.6
06 14.10 штиль 0
{6}
50 км 10/0
[As op]
-0.9 -1.9 93 -2 -2 1024.2 1001.5
09 14.10 З 1-1
{3}
50 км 10/5 1000 м
[Cu hum As op]
+2.0 -1.7 76 +1 +1 1023.8 1001.3
12 14.10 ЮЗ 1-1
{3}
50 км 10/0
[As op]
+2.0 -1.7 76 +1 +1 1022.3 999.8
15 14.10 Ю 1-1
{3}
50 км 9/9 1000 м
[Sc]
+1.4 -1.5 81 -0 -0 1022.0 999.5 +2.4
18 14.10 Ю 1-2
{3}
50 км в посл. час ливневой снег 10/10 600 м
[Sc]
+0.7 +0.1 96 -1 -1 1021.0 998.4
21 14.10 Ю 1-2
{3}
5000 м дымка 10/10 300 м
[Sc]
+0.9 +0.4 96 -1 -1 1020.5 998.0
00 15.10 Ю 2-3
{4}
4500 м дымка 10/10 300 м
[Sc]
+1.2 +0.7 96 -2 -2 1019.5 997.1
03 15.10 ЮЗ 2-4
{5}
4500 м слабая морось 10/10 300 м
[St]
+1.4 +0.9 96 -2 -2 1018.8 996.4 +0.7 0.4
06 15.10 ЮЗ 2-2
{3}
7000 м слабая морось 10/10 300 м
[St]
+2.4 +2.2 99 -1 -1 1018.1 995.8
09 15.10 ЮЗ 2-2
{5}
6000 м слабая морось 10/10 300 м
[St]
+4.4 +4.4 100 +1 +1 1017.2 995.0
12 15.10 Ю 1-1
{3}
300 м слабая морось {туман} ?/? +6.8 +6.8 100 +6 +6 1016.6 994.7
15 15.10 ЮЗ 1-1
{3}
300 м туман {морось} ?/? +8.1 +7.8 98 +7 +7 1016.3 994.5 +8.1 0.9
18 15.10 З 2-3
{6}
50 км {морось, туман} ясно +10.2 +9.2 94 +9 +9 1015.2 993.6
21 15.10 З 3-4
{8}
50 км ясно +10.5 +9.7 95 +8 +8 1014.7 993.1
00 16.10 СЗ 2-4
{7}
50 км ясно +9.0 +7.6 91 +7 +7 1015.4 993.6
03 16.10 СЗ 2-3
{6}
50 км ясно +7.2 +6.4 95 +5 +5 1016.1 994.2 +7.2
06 16.10 З 2-4
{5}
50 км 3/3 1000 м
[Cu hum]
+8.6 +7.1 90 +7 +7 1016.0 994.2 +6.3
09 16.10 З 3-4
{6}
50 км 10/10 600 м
[Sc]
+9.7 +8.5 92 +7 +7 1015.7 994.0
12 16.10 ЮЗ 3-5
{6}
50 км 8/1 1000 м
[Cu hum Cc]
+13.6 +9.3 75 +12 +13 1014.1 992.7
15 16.10 ЮЗ 2-5
{6}
50 км 10/0
[As trans]
+10.1 +9.0 93 +8 +8 1012.8 991.2 +14.4
18 16.10 З 3-4
{7}
50 км 10/0
[As trans]
+10.6 +7.7 82 +9 +9 1009.7 988.2
21 16.10 З 4-4
{8}
50 км ясно +10.0 +5.6 74 +7 +7 1008.8 987.3
00 17.10 З 3-4
{9}
50 км 10/10 600 м
[Sc]
+10.2 +6.1 76 +8 +8 1008.6 987.1
03 17.10 С 7-9
{17}
50 км 8/8 600 м
[Cb cap]
+8.6 +3.0 68 +5 +5 1011.5 989.8 +6.0
06 17.10 С 4-10
{16}
50 км 10/10 600 м
[Cb cap]
+5.2 +1.7 78 +1 +1 1017.1 995.0 +5.0
09 17.10 СЗ 3-8
{10}
50 км 9/9 600 м
[Sc]
+6.0 +0.9 70 +3 +3 1020.9 998.7
12 17.10 З 4-8
{10}
50 км 5/5 1000 м
[Cu hum]
+6.5 +0.4 65 +3 +3 1022.7 1000.6
15 17.10 З 2-4
{8}
50 км 4/0
[Ac cuf]
+3.6 -0.2 76 +1 +1 1023.7 1001.3 +8.6
18 17.10 Ю 1-2
{5}
50 км 3/0
[Ac trans]
+1.0 +0.2 94 -1 -1 1023.4 1000.9
21 17.10 ЮЗ 1-1
{2}
50 км ясно -1.1 -1.7 96 -3 -3 1023.8 1001.0
00 18.10 ЮЗ 1-1
{2}
50 км ясно -0.8 -1.7 94 -3 -3 1023.4 1000.7
03 18.10 ЮЗ 1-1
{2}
50 км 10/10 600 м
[Sc]
-1.0 -1.9 94 -3 -3 1022.0 999.2 -1.9
06 18.10 Ю 2-3
{3}
50 км 9/0
[Ac As]
+2.2 +0.9 91 -1 -1 1021.2 998.7
09 18.10 ЮЗ 3-5
{6}
16 км слабый дождь 10/10 300 м
[Frnb Ns]
+4.5 +3.5 93 +1 +1 1017.3 995.1
12 18.10 ЮЗ 4-6
{7}
50 км {дождь} 10/10 300 м
[Sc]
+6.5 +5.8 95 +3 +3 1013.2 991.4
15 18.10 ЮЗ 2-5
{8}
50 км 4/0
[Ac trans]
+6.5 +6.1 97 +4 +4 1012.0 990.2 +7.0 0.9
18 18.10 ЮЗ 3-4
{6}
50 км 6/0
[Ac cast]
+7.4 +5.5 88 +4 +4 1011.1 989.3
21 18.10 ЮЗ 2-4
{5}
50 км 9/9 600 м
[Sc]
+7.5 +5.9 90 +5 +5 1010.9 989.1
00 19.10 ЮЗ 2-3
{5}
50 км ясно +6.6 +5.5 93 +4 +4 1010.0 988.2
03 19.10 Ю 3-4
{6}
50 км 10/10 600 м
[Sc]
+5.6 +5.1 97 +2 +2 1007.7 985.9 +4.6
06 19.10 З 4-6
{7}
50 км 8/8 1000 м
[Sc]
+7.3 +6.2 93 +4 +4 1005.9 984.2
09 19.10 З 4-6
{8}
50 км 10/10 600 м
[Sc]
+9.2 +6.2 81 +6 +6 1005.7 984.1
12 19.10 З 4-5
{8}
50 км 8/8 300 м
[Cb cap]
+10.3 +6.7 78 +8 +8 1005.6 984.1
15 19.10 ЮЗ 3-4
{7}
50 км 3/3 600 м
[Sc]
+8.0 +4.3 77 +5 +5 1006.8 985.1 +10.3
18 19.10 З 2-2
{5}
50 км 3/3 600 м
[Cu hum]
+4.7 +4.5 99 +2 +2 1008.1 986.2
21 19.10 ЮЗ 2-2
{3}
50 км 10/0
[As op]
+2.7 +1.9 94 -1 -1 1008.7 986.6
00 20.10 З 2-3
{4}
50 км 4/0
[As trans]
+2.9 +2.1 94 -0 -0 1008.3 986.3
03 20.10 ЮЗ 1-2
{4}
50 км 10/10 300 м
[Sc]
+3.5 +2.5 93 +2 +2 1008.7 986.7 +2.7
06 20.10 Ю 2-3
{3}
50 км 9/0
[Ac As]
+2.2 +0.9 91 -1 -1 1009.3 987.3
09 20.10 СЗ 2-3
{7}
50 км 8/8 600 м
[Cb cap]
+5.8 +2.9 82 +3 +4 1010.3 988.4
12 20.10 СЗ 2-3
{7}
50 км в посл. час ливневой дождь 8/8 600 м
[Cb cap]
+4.6 +2.1 84 +2 +2 1012.1 990.0
15 20.10 З 2-2
{8}
50 км {ливн. осадки} 9/9 600 м
[Cb cap]
+3.0 +1.4 89 -0 -0 1014.6 992.4 +6.0 1
18 20.10 С 2-3
{6}
50 км {ливн. осадки} 8/8 1000 м
[Sc]
+1.2 -0.5 88 -2 -2 1017.4 995.0
21 20.10 С 1-1
{5}
50 км 10/10 600 м
[Sc]
-0.3 -1.2 94 -2 -2 1019.9 997.4
00 21.10 С 1-3
{5}
50 км 10/10 600 м
[Sc]
-0.4 -1.3 94 -3 -3 1020.9 998.2

 

Местоположение метеостанции Опарино (Кировская область, Россия): широта 59.85 долгота 48.28 высота над уровнем моря 180 м.

В архиве по умолчанию представлена погода в Опарино за последнюю неделю. Архивные данные за месяц целиком и за предыдущие месяцы, начиная с января 2011 года, Вы можете получить, выбрав интересующий диапазон дат из раскрывающегося списка и нажав кнопку "Ввод!".


*Определитесь, кто Вы:
робот инопланетянин человек

Внимание! Время в таблицах - всемирное. Для получения местного времени необходимо прибавить поправку, которая в Опарино равна 3 ч.

Смотрите также архив погоды в соседних городах и на ближайших метеорологических станциях:

Погода в Объячеве (Коми, Россия) (95 км)
Погода в Лальске (Кировская область, Россия) (102 км)
Погода в Даровском (Кировская область, Россия) (121 км)
Погода в Вохме (Костромская область, Россия) (133 км)
Погода в Вилегодском (Архангельская область, Россия) (142 км)
Погода в Великом Устюге (Вологодская область, Россия) (150 км)
Погода в Нагорске (Кировская область, Россия) (155 км)
Погода в Кирове (Кировская область, Россия) (159 км)
Погода в Никольске (Вологодская область, Россия) (162 км)
Погода в Койгородке (Коми, Россия) (163 км)

Пояснения к столбцам:

Ветер - указаны скорость ветра в м/с - средняя за 10 мин, порывы в срок и между сроками (в фигурных скобках) и направление, откуда дует ветер: С - северный, СВ - северо-восточный, В - восточный, ЮВ - юго-восточный, Ю - южный, ЮЗ - юго-западный, З - западный, СЗ - северо-западный.
Видимость - горизонтальная дальность видимости в метрах или километрах. При видимости от 1 до 10 км при отсутствии осадков обычно наблюдается дымка, при ухудшении видимости до 1 км и менее - туман. В сухую погоду видимость может ухудшаться дымом, пылью или мглою.
Явления - указаны атмосферные явления, наблюдавшиеся в срок или в последний час перед сроком; фигурными скобками обозначены явления, наблюдавшиеся между сроками (за 1-3 часа до срока); квадратными скобками обозначены град или гололедные отложения с указанием их диаметра в мм.
Облачность - указаны через наклонную черту общая и нижняя облачность в баллах и высота нижней границы облаков в метрах; квадратными скобками обозначены формы облаков: Ci - перистые, Cs - перисто-слоистые, Cc - перисто-кучевые, Ac - высококучевые, As - высокослоистые, Sc - слоисто-кучевые, Ns - слоисто-дождевые, Cu - кучевые, Cb - кучево-дождевые. Подробнее классификацию облаков см. в Атласе облаков (PDF).
T - Температура воздуха - температура, измеренная на высоте 2 м над землей.
Td - Температура точки росы - температура, при понижении до которой содержащийся в воздухе водяной пар достигнет насыщения.
f - Относительная влажность воздуха - влажноcть воздуха, измеренная на высоте 2 м над землей.
Te - Эффективная температура - температура, которую ощущает одетый по сезону человек в тени. Характеристика душности погоды. При расчете учитывается влияние влажности воздуха и скорости ветра на теплоощущения человека.
Tes - Эффективная температура на солнце - температура, которую ощущает человек, с поправкой на солнечный нагрев. Характеристика знойности погоды. Зависит от высоты солнца над горизонтом, облачности и скорости ветра. Ночью, в пасмурную погоду, а также при ветре 12 м/с и более поправка равна нулю.
P - Атмосферное давление - приведенное к уровню моря атмосферное давление.
Po - Атмосферное давление - измеренное на уровне метеостанции атмосферное давление.
Tmin - Минимальная температура - минимум температуры воздуха на высоте 2 м над землей.
Tmax - Максимальная температура - максимум температуры воздуха на высоте 2 м над землей.
R - Количество осадков - Количество выпавших осадков за период времени, мм. При наведении курсора мыши на число - период времени, за который выпало указанное количество осадков.
R24 - Количество осадков - Количество выпавших осадков за 24 часа, мм.
S - Снежный покров - Высота снежного покрова, см. При наведении курсора мыши на число - состояние снежного покрова и степень покрытия местности в баллах.